TOM7KF GOBD-LSGG

Flight info

Callsign TOM7KF
Flight time 5h 19m
Altitude 39000
Route SAKLI1B SAKLI UR975 DIDAN/N0487F400 UR975 ADM UG850 BERUM DCT VLC M985 BCN N975 NILDU DCT MTL A6 ROMAM DCT LTP DCT BELUS
Aircraft B789/H-SDE1E2E3FGHIJ2J3J4J5M1RWXY/LB1D1

Departure

Time 2026-04-24 13:53
Airport Blaise Diagne International Airport (GOBD)

Arrival

Time 2026-04-24 19:12
Airport Geneva International Airport (LSGG)
Time Latitude Longitude Altitude Speed Heading
2026-04-24 13:31 14.66981 -17.06845 307 ft 0 kts 62°
2026-04-24 13:42 14.66980 -17.06846 307 ft 2 kts 62°
2026-04-24 13:42 14.66968 -17.06869 307 ft 4 kts 62°
2026-04-24 13:42 14.66955 -17.06894 306 ft 4 kts 62°
2026-04-24 13:42 14.66942 -17.06918 306 ft 4 kts 62°
2026-04-24 13:43 14.66930 -17.06943 307 ft 4 kts 64°
2026-04-24 13:43 14.66919 -17.06968 309 ft 4 kts 67°
2026-04-24 13:43 14.66915 -17.06977 307 ft 7 kts 66°
2026-04-24 13:46 14.66916 -17.06973 308 ft 1 kts 82°
2026-04-24 13:46 14.66913 -17.06965 305 ft 1 kts 115°
2026-04-24 13:46 14.66907 -17.06961 307 ft 1 kts 146°
2026-04-24 13:46 14.66897 -17.06961 308 ft 2 kts 187°
2026-04-24 13:47 14.66875 -17.06971 309 ft 8 kts 200°
2026-04-24 13:47 14.66804 -17.06976 310 ft 13 kts 180°
2026-04-24 13:47 14.66700 -17.06977 308 ft 15 kts 188°
2026-04-24 13:47 14.66666 -17.07021 311 ft 6 kts 264°
2026-04-24 13:48 14.66651 -17.07066 309 ft 8 kts 240°
2026-04-24 13:48 14.66612 -17.07095 307 ft 3 kts 179°
2026-04-24 13:48 14.66572 -17.07090 308 ft 9 kts 172°
2026-04-24 13:48 14.66491 -17.07085 307 ft 14 kts 179°
2026-04-24 13:49 14.66372 -17.07084 308 ft 19 kts 179°
2026-04-24 13:49 14.66237 -17.07083 307 ft 20 kts 180°
2026-04-24 13:49 14.66097 -17.07082 310 ft 20 kts 179°
2026-04-24 13:49 14.65954 -17.07080 307 ft 21 kts 179°
2026-04-24 13:50 14.65807 -17.07077 308 ft 21 kts 179°
2026-04-24 13:50 14.65688 -17.07076 309 ft 14 kts 180°
2026-04-24 13:50 14.65593 -17.07077 307 ft 14 kts 181°
2026-04-24 13:50 14.65538 -17.07113 307 ft 6 kts 248°
2026-04-24 13:51 14.65532 -17.07144 306 ft 2 kts 262°
2026-04-24 13:51 14.65532 -17.07184 306 ft 10 kts 274°
2026-04-24 13:51 14.65547 -17.07249 307 ft 5 kts 313°
2026-04-24 13:51 14.65572 -17.07263 307 ft 5 kts 344°
2026-04-24 13:52 14.65615 -17.07268 306 ft 6 kts 359°
2026-04-24 13:52 14.65696 -17.07269 306 ft 24 kts 359°
2026-04-24 13:52 14.66112 -17.07274 306 ft 101 kts 359°
2026-04-24 13:52 14.67066 -17.07282 324 ft 172 kts
2026-04-24 13:53 14.68236 -17.07278 1410 ft 156 kts
2026-04-24 13:53 14.69308 -17.07306 2358 ft 161 kts 359°
2026-04-24 13:53 14.70532 -17.07316 2826 ft 190 kts
2026-04-24 13:53 14.71942 -17.07325 3332 ft 218 kts 359°
2026-04-24 13:54 14.73560 -17.07342 3766 ft 248 kts 359°
2026-04-24 13:54 14.75331 -17.07361 4687 ft 257 kts 358°
2026-04-24 13:54 14.77145 -17.07379 5681 ft 265 kts 358°
2026-04-24 13:54 14.79026 -17.07396 6613 ft 276 kts 359°
2026-04-24 13:55 14.80966 -17.07414 7558 ft 282 kts 359°
2026-04-24 13:55 14.82951 -17.07431 8467 ft 288 kts 359°
2026-04-24 13:55 14.84980 -17.07450 9404 ft 295 kts 359°
2026-04-24 13:55 14.87057 -17.07471 10228 ft 305 kts 359°
2026-04-24 13:56 14.89245 -17.07491 10548 ft 332 kts 359°
2026-04-24 13:56 14.91648 -17.07513 10826 ft 358 kts 359°
2026-04-24 13:56 14.94155 -17.07537 11679 ft 361 kts 359°
2026-04-24 13:56 14.96696 -17.07561 12502 ft 368 kts 359°
2026-04-24 13:57 14.99278 -17.07586 13357 ft 374 kts 359°
2026-04-24 13:57 15.01911 -17.07611 14134 ft 380 kts 359°
2026-04-24 13:57 15.04559 -17.07635 15018 ft 381 kts 358°
2026-04-24 13:57 15.07215 -17.07660 15886 ft 382 kts 357°
2026-04-24 13:58 15.09852 -17.07685 16738 ft 384 kts 357°
2026-04-24 13:58 15.12529 -17.07710 17570 ft 385 kts 356°
2026-04-24 13:58 15.15226 -17.07736 18333 ft 388 kts 356°
2026-04-24 13:58 15.17942 -17.07762 18977 ft 391 kts 356°
2026-04-24 13:59 15.20677 -17.07788 19635 ft 394 kts 356°
2026-04-24 13:59 15.23431 -17.07814 20278 ft 397 kts 357°
2026-04-24 13:59 15.26169 -17.07840 20902 ft 400 kts 357°
2026-04-24 13:59 15.28961 -17.07866 21523 ft 402 kts 356°
2026-04-24 14:00 15.31768 -17.07665 22081 ft 409 kts
2026-04-24 14:00 15.34507 -17.06793 22661 ft 416 kts 21°
2026-04-24 14:00 15.37025 -17.05263 23208 ft 425 kts 35°
2026-04-24 14:00 15.39320 -17.03304 23657 ft 429 kts 37°
2026-04-24 14:01 15.41611 -17.01301 24093 ft 432 kts 37°
2026-04-24 14:01 15.43912 -16.99269 24529 ft 436 kts 37°
2026-04-24 14:01 15.46240 -16.97230 24933 ft 439 kts 36°
2026-04-24 14:01 15.48589 -16.95185 25349 ft 442 kts 36°
2026-04-24 14:02 15.50922 -16.93147 25755 ft 445 kts 36°
2026-04-24 14:02 15.53302 -16.91058 26156 ft 449 kts 36°
2026-04-24 14:02 15.55695 -16.88960 26544 ft 452 kts 36°
2026-04-24 14:02 15.58106 -16.86850 26941 ft 455 kts 35°
2026-04-24 14:03 15.60535 -16.84723 27327 ft 458 kts 35°
2026-04-24 14:03 15.62978 -16.82581 27706 ft 461 kts 35°
2026-04-24 14:03 15.65440 -16.80422 28076 ft 465 kts 35°
2026-04-24 14:03 15.67921 -16.78246 28441 ft 468 kts 35°
2026-04-24 14:04 15.70420 -16.76053 28815 ft 471 kts 35°
2026-04-24 14:04 15.72930 -16.73850 29174 ft 474 kts 34°
2026-04-24 14:04 15.75428 -16.71657 29521 ft 477 kts 34°
2026-04-24 14:04 15.77975 -16.69420 29871 ft 480 kts 34°
2026-04-24 14:05 15.80541 -16.67165 30174 ft 483 kts 34°
2026-04-24 14:05 15.83113 -16.64905 30476 ft 486 kts 34°
2026-04-24 14:05 15.85703 -16.62627 30757 ft 488 kts 34°
2026-04-24 14:05 15.88303 -16.60340 31041 ft 491 kts 34°
2026-04-24 14:06 15.90919 -16.58039 31314 ft 493 kts 34°
2026-04-24 14:06 15.93509 -16.55759 31579 ft 496 kts 35°
2026-04-24 14:06 15.96148 -16.53436 31861 ft 498 kts 35°
2026-04-24 14:06 15.98799 -16.51101 32104 ft 501 kts 35°
2026-04-24 14:07 16.01465 -16.48752 32359 ft 503 kts 35°
2026-04-24 14:07 16.04140 -16.46394 32626 ft 505 kts 34°
2026-04-24 14:07 16.06951 -16.44204 32807 ft 503 kts 30°
2026-04-24 14:07 16.09820 -16.42089 33049 ft 506 kts 30°
2026-04-24 14:08 16.12701 -16.39954 33286 ft 508 kts 30°
2026-04-24 14:08 16.15360 -16.37982 33487 ft 510 kts 30°
2026-04-24 14:08 16.18262 -16.35834 33700 ft 512 kts 30°
2026-04-24 14:08 16.21182 -16.33674 33909 ft 515 kts 30°
2026-04-24 14:09 16.24107 -16.31507 34099 ft 516 kts 30°
2026-04-24 14:09 16.27033 -16.29335 34289 ft 518 kts 30°
2026-04-24 14:09 16.29970 -16.27157 34541 ft 518 kts 30°
2026-04-24 14:09 16.32908 -16.24978 34804 ft 518 kts 30°
2026-04-24 14:10 16.34855 -16.23533 34982 ft 517 kts 30°
2026-04-24 14:10 16.38733 -16.20655 35329 ft 517 kts 30°
2026-04-24 14:10 16.41670 -16.18473 35591 ft 517 kts 30°
2026-04-24 14:10 16.44603 -16.16294 35853 ft 517 kts 30°
2026-04-24 14:11 16.47533 -16.14116 36094 ft 517 kts 30°
2026-04-24 14:11 16.50455 -16.11944 36351 ft 516 kts 30°
2026-04-24 14:11 16.56302 -16.07592 36853 ft 516 kts 30°
2026-04-24 14:12 16.59225 -16.05414 37091 ft 516 kts 30°
2026-04-24 14:12 16.62147 -16.03237 37322 ft 516 kts 30°
2026-04-24 14:12 16.65038 -16.01083 37567 ft 515 kts 30°
2026-04-24 14:12 16.67956 -15.98907 37812 ft 515 kts 30°
2026-04-24 14:13 16.70887 -15.96721 37897 ft 518 kts 30°
2026-04-24 14:13 16.76764 -15.92332 37893 ft 517 kts 30°
2026-04-24 14:14 16.82595 -15.87977 37884 ft 515 kts 30°
2026-04-24 14:14 16.91322 -15.81451 37885 ft 516 kts 30°
2026-04-24 14:15 16.97165 -15.77079 37884 ft 516 kts 30°
2026-04-24 14:15 17.02962 -15.72736 37884 ft 515 kts 30°
2026-04-24 14:16 17.08781 -15.68374 37877 ft 515 kts 30°
2026-04-24 14:17 17.17525 -15.61815 37882 ft 516 kts 30°
2026-04-24 14:17 17.26273 -15.55243 37884 ft 516 kts 30°
2026-04-24 14:18 17.32072 -15.50883 37884 ft 515 kts 30°
2026-04-24 14:18 17.36949 -15.47213 37880 ft 515 kts 30°
2026-04-24 14:19 17.42741 -15.42853 37885 ft 516 kts 30°
2026-04-24 14:19 17.48569 -15.38460 37877 ft 516 kts 30°
2026-04-24 14:20 17.54407 -15.34058 37879 ft 515 kts 30°
2026-04-24 14:20 17.60223 -15.29668 37884 ft 515 kts 30°
2026-04-24 14:21 17.66055 -15.25263 37881 ft 516 kts 30°
2026-04-24 14:21 17.71886 -15.20863 37875 ft 516 kts 30°
2026-04-24 14:22 17.77675 -15.16489 37878 ft 515 kts 30°
2026-04-24 14:23 17.86407 -15.09886 37874 ft 515 kts 30°
2026-04-24 14:23 17.92200 -15.05508 37873 ft 515 kts 30°
2026-04-24 14:24 17.98029 -15.01096 37872 ft 516 kts 29°
2026-04-24 14:24 18.03862 -14.96678 37872 ft 517 kts 30°
2026-04-24 14:25 18.09699 -14.92253 37870 ft 517 kts 29°
2026-04-24 14:25 18.15539 -14.87822 37868 ft 517 kts 29°
2026-04-24 14:26 18.21379 -14.83387 37871 ft 517 kts 29°
2026-04-24 14:26 18.27171 -14.78986 37871 ft 517 kts 29°
2026-04-24 14:27 18.33001 -14.74552 37852 ft 517 kts 29°
2026-04-24 14:27 18.38831 -14.70113 37863 ft 517 kts 29°
2026-04-24 14:28 18.44663 -14.65671 37864 ft 518 kts 29°
2026-04-24 14:28 18.50517 -14.61206 37871 ft 519 kts 29°
2026-04-24 14:29 18.56324 -14.56774 37855 ft 518 kts 29°
2026-04-24 14:29 18.62165 -14.52312 37854 ft 518 kts 29°
2026-04-24 14:30 18.67999 -14.47852 37853 ft 518 kts 29°
2026-04-24 14:30 18.73838 -14.43384 37859 ft 518 kts 29°
2026-04-24 14:31 18.79639 -14.38942 37850 ft 519 kts 29°
2026-04-24 14:31 18.85488 -14.34457 37855 ft 519 kts 29°
2026-04-24 14:32 18.91334 -14.29973 37853 ft 520 kts 29°
2026-04-24 14:32 18.97199 -14.25470 37855 ft 521 kts 29°
2026-04-24 14:33 19.03069 -14.20957 37850 ft 521 kts 29°
2026-04-24 14:33 19.08893 -14.16477 37855 ft 521 kts 29°
2026-04-24 14:34 19.14757 -14.11962 37861 ft 521 kts 28°
2026-04-24 14:34 19.20624 -14.07441 37858 ft 521 kts 28°
2026-04-24 14:35 19.26495 -14.02913 37861 ft 522 kts 28°
2026-04-24 14:35 19.32360 -13.98384 37857 ft 522 kts 28°
2026-04-24 14:36 19.38183 -13.93885 37861 ft 521 kts 28°
2026-04-24 14:36 19.44033 -13.89360 37856 ft 520 kts 28°
2026-04-24 14:37 19.49887 -13.84830 37852 ft 521 kts 28°
2026-04-24 14:37 19.55751 -13.80284 37858 ft 521 kts 28°
2026-04-24 14:38 19.61573 -13.75770 37861 ft 522 kts 28°
2026-04-24 14:38 19.67437 -13.71217 37863 ft 522 kts 28°
2026-04-24 14:39 19.73308 -13.66656 37863 ft 522 kts 28°
2026-04-24 14:39 19.79139 -13.62120 37865 ft 522 kts 28°
2026-04-24 14:40 19.85001 -13.57557 37869 ft 522 kts 28°
2026-04-24 14:40 19.90875 -13.52980 37870 ft 522 kts 28°
2026-04-24 14:41 19.96703 -13.48436 37871 ft 523 kts 28°
2026-04-24 14:41 20.02582 -13.43845 37870 ft 523 kts 28°
2026-04-24 14:42 20.08452 -13.39259 37870 ft 524 kts 28°
2026-04-24 14:42 20.14326 -13.34664 37875 ft 524 kts 28°
2026-04-24 14:43 20.20198 -13.30068 37873 ft 523 kts 28°
2026-04-24 14:43 20.26032 -13.25496 37878 ft 523 kts 28°
2026-04-24 14:44 20.31901 -13.20892 37874 ft 523 kts 29°
2026-04-24 14:44 20.37786 -13.16273 37880 ft 525 kts 29°
2026-04-24 14:45 20.43660 -13.11655 37887 ft 524 kts 28°
2026-04-24 14:45 20.49631 -13.07389 37909 ft 512 kts 17°
2026-04-24 14:46 20.56246 -13.05026 37891 ft 497 kts
2026-04-24 14:46 20.62956 -13.03243 37899 ft 497 kts
2026-04-24 14:47 20.69683 -13.01473 37902 ft 498 kts
2026-04-24 14:47 20.76419 -12.99686 37907 ft 498 kts
2026-04-24 14:48 20.83110 -12.97918 37907 ft 497 kts
2026-04-24 14:48 20.89822 -12.96138 37908 ft 497 kts
2026-04-24 14:49 20.96557 -12.94352 37908 ft 498 kts
2026-04-24 14:49 21.03267 -12.92570 37914 ft 498 kts
2026-04-24 14:50 21.09995 -12.90782 37911 ft 498 kts
2026-04-24 14:50 21.16741 -12.88988 37919 ft 498 kts
2026-04-24 14:51 21.23482 -12.87193 37922 ft 498 kts
2026-04-24 14:51 21.30175 -12.85409 37920 ft 498 kts
2026-04-24 14:52 21.36903 -12.83614 37920 ft 497 kts
2026-04-24 14:52 21.43618 -12.81822 37925 ft 497 kts
2026-04-24 14:53 21.50338 -12.80026 37924 ft 497 kts
2026-04-24 14:53 21.57023 -12.78238 37922 ft 498 kts
2026-04-24 14:54 21.63744 -12.76438 37925 ft 497 kts
2026-04-24 14:54 21.70467 -12.74636 37931 ft 497 kts
2026-04-24 14:55 21.76056 -12.73137 37925 ft 498 kts
2026-04-24 14:55 21.83920 -12.71025 37937 ft 498 kts
2026-04-24 14:56 21.90614 -12.69226 37937 ft 499 kts
2026-04-24 14:56 21.97358 -12.67411 37932 ft 499 kts
2026-04-24 14:57 22.04115 -12.65591 37939 ft 499 kts
2026-04-24 14:57 22.10856 -12.63774 37937 ft 499 kts
2026-04-24 14:58 22.17599 -12.61954 37938 ft 499 kts
2026-04-24 14:58 22.24297 -12.60146 37943 ft 499 kts
2026-04-24 14:59 22.31042 -12.58322 37946 ft 499 kts
2026-04-24 14:59 22.37753 -12.56505 37948 ft 499 kts
2026-04-24 15:00 22.44481 -12.54682 37945 ft 498 kts
2026-04-24 15:00 22.51190 -12.52863 37944 ft 498 kts
2026-04-24 15:01 22.57913 -12.51038 37948 ft 498 kts
2026-04-24 15:01 22.64639 -12.49210 37957 ft 497 kts
2026-04-24 15:02 22.71323 -12.47392 37960 ft 497 kts
2026-04-24 15:02 22.78013 -12.45370 37962 ft 503 kts 11°
2026-04-24 15:03 22.83575 -12.43347 37948 ft 503 kts 10°
2026-04-24 15:03 22.91280 -12.40544 37955 ft 502 kts 11°
2026-04-24 15:04 22.97906 -12.38127 37962 ft 501 kts 10°
2026-04-24 15:04 23.04479 -12.35730 37965 ft 501 kts 10°
2026-04-24 15:05 23.11089 -12.33313 37957 ft 501 kts 10°
2026-04-24 15:05 23.17694 -12.30900 37955 ft 501 kts 10°
2026-04-24 15:06 23.24311 -12.28476 37963 ft 501 kts 10°
2026-04-24 15:06 23.30885 -12.26067 37959 ft 501 kts 10°
2026-04-24 15:07 23.37519 -12.23633 37962 ft 501 kts 10°
2026-04-24 15:07 23.44095 -12.21218 37960 ft 501 kts 10°
2026-04-24 15:08 23.50720 -12.18782 37966 ft 502 kts 10°
2026-04-24 15:08 23.57328 -12.16349 37966 ft 501 kts 10°
2026-04-24 15:09 23.62809 -12.14330 37963 ft 500 kts 11°
2026-04-24 15:09 23.69408 -12.11897 37961 ft 500 kts 11°
2026-04-24 15:10 23.75995 -12.09465 37965 ft 499 kts 11°
2026-04-24 15:10 23.82567 -12.07037 37964 ft 500 kts 11°
2026-04-24 15:11 23.89157 -12.04598 37959 ft 500 kts 11°
2026-04-24 15:11 23.95747 -12.02158 37963 ft 500 kts 11°
2026-04-24 15:12 24.02300 -11.99728 37962 ft 500 kts 11°
2026-04-24 15:12 24.12197 -11.96054 37958 ft 501 kts 11°
2026-04-24 15:13 24.18805 -11.93597 37955 ft 501 kts 11°
2026-04-24 15:13 24.25393 -11.91145 37951 ft 500 kts 11°
2026-04-24 15:14 24.31941 -11.88705 37956 ft 500 kts 11°
2026-04-24 15:14 24.38535 -11.86246 37955 ft 500 kts 11°
2026-04-24 15:15 24.45123 -11.83786 37955 ft 499 kts 11°
2026-04-24 15:15 24.51703 -11.81326 37954 ft 499 kts 11°
2026-04-24 15:16 24.58231 -11.78883 37961 ft 499 kts 11°
2026-04-24 15:16 24.64814 -11.76417 37962 ft 499 kts 11°
2026-04-24 15:17 24.71393 -11.73949 37962 ft 499 kts 11°
2026-04-24 15:17 24.77967 -11.71481 37961 ft 499 kts 11°
2026-04-24 15:18 24.84507 -11.69022 37965 ft 499 kts 11°
2026-04-24 15:18 24.91091 -11.66545 37968 ft 499 kts 11°
2026-04-24 15:19 24.97676 -11.64063 37965 ft 499 kts 11°
2026-04-24 15:19 25.04222 -11.61595 37966 ft 499 kts 11°
2026-04-24 15:20 25.10794 -11.59113 37969 ft 499 kts 12°
2026-04-24 15:20 25.17376 -11.56626 37968 ft 500 kts 12°
2026-04-24 15:21 25.23935 -11.54046 37967 ft 501 kts 13°
2026-04-24 15:21 25.30473 -11.51375 37970 ft 501 kts 13°
2026-04-24 15:22 25.37014 -11.48661 37970 ft 502 kts 13°
2026-04-24 15:23 25.46783 -11.44624 37972 ft 501 kts 13°
2026-04-24 15:23 25.56577 -11.40559 37971 ft 502 kts 13°
2026-04-24 15:25 25.71817 -11.34228 37973 ft 502 kts 14°
2026-04-24 15:26 25.89259 -11.26959 37975 ft 503 kts 14°
2026-04-24 15:27 26.08926 -11.18733 37975 ft 503 kts 14°
2026-04-24 15:29 26.28510 -11.10516 37974 ft 502 kts 14°
2026-04-24 15:31 26.51305 -11.00911 37963 ft 500 kts 14°
2026-04-24 15:33 26.77262 -10.89926 37959 ft 499 kts 14°
2026-04-24 15:34 26.93502 -10.83025 37954 ft 498 kts 14°
2026-04-24 15:35 27.09686 -10.76127 37951 ft 498 kts 14°
2026-04-24 15:36 27.16166 -10.73359 37945 ft 498 kts 14°
2026-04-24 15:36 27.25834 -10.69223 37948 ft 498 kts 14°
2026-04-24 15:37 27.32328 -10.66440 37950 ft 498 kts 14°
2026-04-24 15:37 27.38811 -10.63659 37944 ft 498 kts 14°
2026-04-24 15:38 27.45290 -10.60876 37953 ft 498 kts 14°
2026-04-24 15:38 27.51732 -10.58105 37955 ft 499 kts 14°
2026-04-24 15:39 27.58227 -10.55308 37951 ft 498 kts 14°
2026-04-24 15:39 27.64701 -10.52517 37954 ft 498 kts 14°
2026-04-24 15:40 27.71194 -10.49763 37953 ft 497 kts 13°
2026-04-24 15:40 27.77703 -10.47098 37937 ft 498 kts 14°
2026-04-24 15:41 27.84201 -10.44369 37949 ft 498 kts 14°
2026-04-24 15:41 27.90711 -10.41670 37960 ft 498 kts 14°
2026-04-24 15:42 27.97162 -10.38970 37946 ft 497 kts 14°
2026-04-24 15:42 28.03649 -10.36264 37952 ft 497 kts 14°
2026-04-24 15:43 28.10133 -10.33549 37959 ft 497 kts 14°
2026-04-24 15:43 28.16634 -10.30827 37956 ft 498 kts 14°
2026-04-24 15:44 28.23149 -10.28093 37959 ft 498 kts 14°
2026-04-24 15:44 28.29641 -10.25366 37963 ft 497 kts 14°
2026-04-24 15:45 28.36084 -10.22657 37965 ft 496 kts 14°
2026-04-24 15:45 28.42564 -10.19929 37964 ft 496 kts 14°
2026-04-24 15:46 28.49032 -10.17201 37973 ft 495 kts 14°
2026-04-24 15:46 28.55501 -10.14470 37973 ft 495 kts 14°
2026-04-24 15:47 28.61929 -10.11753 37985 ft 495 kts 14°
2026-04-24 15:47 28.68393 -10.09016 37984 ft 495 kts 14°
2026-04-24 15:48 28.74844 -10.06282 37978 ft 494 kts 14°
2026-04-24 15:48 28.81290 -10.03546 37983 ft 494 kts 14°
2026-04-24 15:49 28.87752 -10.00800 37974 ft 494 kts 14°
2026-04-24 15:49 28.94152 -9.98076 37965 ft 493 kts 14°
2026-04-24 15:50 29.00599 -9.95330 37972 ft 493 kts 14°
2026-04-24 15:50 29.07030 -9.92571 37983 ft 492 kts 14°
2026-04-24 15:51 29.13444 -9.89822 37968 ft 492 kts 14°
2026-04-24 15:51 29.19820 -9.87081 37971 ft 492 kts 14°
2026-04-24 15:52 29.26242 -9.84318 37994 ft 492 kts 14°
2026-04-24 15:52 29.32664 -9.81552 37990 ft 492 kts 14°
2026-04-24 15:53 29.39026 -9.78807 38002 ft 491 kts 14°
2026-04-24 15:53 29.45418 -9.76046 38003 ft 490 kts 14°
2026-04-24 15:54 29.51812 -9.73281 38002 ft 491 kts 14°
2026-04-24 15:54 29.58204 -9.70512 38003 ft 491 kts 14°
2026-04-24 15:55 29.64613 -9.67732 38006 ft 491 kts 14°
2026-04-24 15:55 29.70968 -9.64971 37999 ft 490 kts 14°
2026-04-24 15:56 29.77353 -9.62194 37994 ft 490 kts 14°
2026-04-24 15:56 29.83736 -9.59413 37980 ft 489 kts 14°
2026-04-24 15:57 29.90106 -9.56635 37973 ft 489 kts 14°
2026-04-24 15:57 29.96475 -9.53860 37966 ft 489 kts 14°
2026-04-24 15:58 30.02813 -9.51126 37944 ft 488 kts 14°
2026-04-24 15:58 30.09170 -9.48363 37921 ft 487 kts 14°
2026-04-24 15:59 30.15518 -9.45609 37901 ft 487 kts 14°
2026-04-24 15:59 30.20795 -9.43313 37894 ft 487 kts 14°
2026-04-24 16:00 30.27149 -9.40547 37888 ft 487 kts 14°
2026-04-24 16:00 30.33290 -9.37130 37904 ft 499 kts 30°
2026-04-24 16:01 30.38715 -9.32008 37893 ft 502 kts 34°
2026-04-24 16:01 30.44065 -9.26766 38049 ft 503 kts 34°
2026-04-24 16:02 30.46743 -9.24155 38327 ft 503 kts 34°
2026-04-24 16:02 30.49420 -9.21544 38556 ft 503 kts 34°
2026-04-24 16:02 30.52063 -9.18956 38744 ft 503 kts 34°
2026-04-24 16:02 30.54772 -9.16300 38914 ft 504 kts 34°
2026-04-24 16:03 30.57416 -9.13710 39099 ft 504 kts 34°
2026-04-24 16:03 30.60129 -9.11052 39254 ft 505 kts 34°
2026-04-24 16:03 30.62780 -9.08452 39414 ft 506 kts 34°
2026-04-24 16:03 30.65473 -9.05806 39626 ft 505 kts 34°
2026-04-24 16:04 30.68170 -9.03177 39815 ft 505 kts 33°
2026-04-24 16:04 30.70882 -9.00548 39923 ft 507 kts 33°
2026-04-24 16:04 30.76272 -8.95282 39935 ft 509 kts 34°
2026-04-24 16:05 30.84382 -8.87352 39942 ft 505 kts 34°
2026-04-24 16:06 30.92447 -8.79422 39989 ft 507 kts 34°
2026-04-24 16:07 31.00477 -8.71373 40002 ft 508 kts 34°
2026-04-24 16:07 31.08503 -8.63338 40026 ft 509 kts 34°
2026-04-24 16:08 31.16572 -8.55248 40040 ft 509 kts 34°
2026-04-24 16:09 31.24605 -8.47168 40052 ft 510 kts 34°
2026-04-24 16:09 31.30008 -8.41770 40055 ft 510 kts 34°
2026-04-24 16:11 31.43477 -8.28251 40055 ft 511 kts 34°
2026-04-24 16:11 31.48887 -8.22805 40056 ft 512 kts 34°
2026-04-24 16:12 31.56962 -8.14663 40061 ft 512 kts 34°
2026-04-24 16:13 31.64692 -8.05917 40058 ft 519 kts 42°
2026-04-24 16:14 31.74454 -7.93409 40044 ft 521 kts 42°
2026-04-24 16:14 31.81804 -7.83964 40050 ft 522 kts 42°
2026-04-24 16:15 31.89147 -7.74481 40049 ft 522 kts 42°
2026-04-24 16:16 31.96454 -7.65017 40044 ft 523 kts 42°
2026-04-24 16:17 32.08667 -7.49144 40039 ft 522 kts 42°
2026-04-24 16:18 32.18360 -7.36457 40025 ft 521 kts 42°
2026-04-24 16:19 32.25632 -7.26912 40014 ft 520 kts 42°
2026-04-24 16:20 32.32901 -7.17376 40034 ft 519 kts 42°
2026-04-24 16:20 32.40141 -7.07848 40031 ft 518 kts 42°
2026-04-24 16:21 32.47374 -6.98308 40025 ft 519 kts 43°
2026-04-24 16:22 32.52159 -6.91983 40025 ft 518 kts 43°
2026-04-24 16:22 32.59357 -6.82448 40027 ft 517 kts 43°
2026-04-24 16:23 32.64169 -6.76061 40024 ft 518 kts 43°
2026-04-24 16:24 32.71333 -6.66529 40028 ft 518 kts 43°
2026-04-24 16:24 32.76122 -6.60142 40024 ft 517 kts 43°
2026-04-24 16:25 32.80906 -6.53753 40024 ft 516 kts 44°
2026-04-24 16:25 32.85686 -6.47359 40024 ft 516 kts 44°
2026-04-24 16:26 32.92831 -6.37775 40031 ft 516 kts 44°
2026-04-24 16:27 32.99945 -6.28259 40029 ft 514 kts 44°
2026-04-24 16:27 33.04706 -6.21865 40039 ft 515 kts 44°
2026-04-24 16:28 33.09471 -6.15462 40027 ft 515 kts 44°
2026-04-24 16:28 33.16610 -6.05843 40038 ft 516 kts 45°
2026-04-24 16:29 33.21332 -5.99467 40047 ft 516 kts 45°
2026-04-24 16:30 33.30850 -5.86581 40052 ft 516 kts 45°
2026-04-24 16:30 33.35597 -5.80130 40057 ft 517 kts 45°
2026-04-24 16:31 33.40305 -5.73696 40057 ft 517 kts 45°
2026-04-24 16:31 33.45043 -5.67224 40077 ft 517 kts 45°
2026-04-24 16:32 33.49781 -5.60736 40073 ft 517 kts 46°
2026-04-24 16:32 33.54505 -5.54254 40070 ft 516 kts 46°
2026-04-24 16:33 33.59190 -5.47817 40080 ft 515 kts 46°
2026-04-24 16:33 33.63902 -5.41328 40087 ft 515 kts 46°
2026-04-24 16:34 33.68613 -5.34831 40091 ft 516 kts 46°
2026-04-24 16:34 33.73322 -5.28322 40088 ft 516 kts 46°
2026-04-24 16:35 33.78005 -5.21840 40104 ft 516 kts 46°
2026-04-24 16:35 33.82713 -5.15311 40118 ft 516 kts 46°
2026-04-24 16:36 33.87419 -5.08772 40110 ft 516 kts 47°
2026-04-24 16:36 33.92110 -5.02285 40113 ft 516 kts 42°
2026-04-24 16:37 33.97637 -4.96880 40113 ft 512 kts 34°
2026-04-24 16:37 34.03347 -4.91717 40109 ft 513 kts 34°
2026-04-24 16:38 34.09034 -4.86499 40105 ft 513 kts 34°
2026-04-24 16:38 34.14727 -4.81306 40090 ft 513 kts 34°
2026-04-24 16:39 34.20374 -4.76125 40077 ft 513 kts 34°
2026-04-24 16:39 34.26065 -4.70905 40079 ft 513 kts 34°
2026-04-24 16:40 34.31746 -4.65680 40087 ft 511 kts 34°
2026-04-24 16:40 34.37395 -4.60477 40086 ft 509 kts 35°
2026-04-24 16:41 34.43035 -4.55254 40078 ft 510 kts 35°
2026-04-24 16:41 34.48621 -4.50026 40079 ft 510 kts 35°
2026-04-24 16:42 34.54247 -4.44782 40080 ft 509 kts 36°
2026-04-24 16:42 34.59855 -4.39528 40084 ft 508 kts 36°
2026-04-24 16:43 34.65465 -4.34273 40079 ft 509 kts 36°
2026-04-24 16:43 34.71044 -4.29031 40087 ft 509 kts 36°
2026-04-24 16:44 34.76655 -4.23754 40084 ft 509 kts 36°
2026-04-24 16:44 34.82250 -4.18482 40090 ft 509 kts 36°
2026-04-24 16:45 34.87852 -4.13193 40091 ft 509 kts 36°
2026-04-24 16:45 34.93450 -4.07899 40087 ft 510 kts 36°
2026-04-24 16:46 34.99053 -4.02591 40071 ft 510 kts 36°
2026-04-24 16:46 35.04628 -3.97300 40074 ft 511 kts 36°
2026-04-24 16:47 35.10230 -3.91973 40076 ft 511 kts 36°
2026-04-24 16:47 35.15842 -3.86628 40081 ft 511 kts 36°
2026-04-24 16:48 35.21445 -3.81313 40066 ft 509 kts 35°
2026-04-24 16:48 35.27118 -3.76141 40069 ft 507 kts 36°
2026-04-24 16:49 35.31775 -3.71790 40068 ft 506 kts 36°
2026-04-24 16:49 35.38329 -3.65720 40069 ft 507 kts 36°
2026-04-24 16:50 35.43936 -3.60495 40068 ft 506 kts 36°
2026-04-24 16:50 35.48603 -3.56149 40070 ft 506 kts 36°
2026-04-24 16:51 35.54223 -3.50906 40067 ft 507 kts 36°
2026-04-24 16:51 35.59843 -3.45650 40069 ft 507 kts 36°
2026-04-24 16:52 35.65428 -3.40421 40070 ft 507 kts 36°
2026-04-24 16:52 35.71035 -3.35159 40071 ft 507 kts 36°
2026-04-24 16:53 35.76638 -3.29892 40069 ft 506 kts 36°
2026-04-24 16:53 35.82232 -3.24625 40069 ft 506 kts 36°
2026-04-24 16:54 35.88232 -3.20083 40074 ft 506 kts 28°
2026-04-24 16:54 35.94282 -3.15787 40086 ft 506 kts 28°
2026-04-24 16:55 36.00373 -3.11419 40075 ft 506 kts 28°
2026-04-24 16:55 36.06490 -3.07047 40072 ft 506 kts 28°
2026-04-24 16:56 36.12575 -3.02676 40075 ft 505 kts 28°
2026-04-24 16:56 36.18657 -2.98308 40075 ft 506 kts 28°
2026-04-24 16:57 36.24745 -2.93923 40076 ft 506 kts 28°
2026-04-24 16:57 36.30823 -2.89539 40075 ft 504 kts 28°
2026-04-24 16:58 36.36833 -2.85196 40070 ft 502 kts 29°
2026-04-24 16:58 36.42878 -2.80819 40071 ft 501 kts 29°
2026-04-24 16:59 36.48920 -2.76438 40088 ft 503 kts 29°
2026-04-24 17:00 36.57953 -2.69870 40088 ft 503 kts 29°
2026-04-24 17:00 36.66993 -2.63281 40075 ft 501 kts 29°
2026-04-24 17:01 36.76011 -2.56690 40067 ft 501 kts 29°
2026-04-24 17:02 36.84981 -2.50115 40060 ft 499 kts 29°
2026-04-24 17:02 36.90966 -2.45719 40058 ft 499 kts 29°
2026-04-24 17:03 36.99950 -2.39103 40053 ft 500 kts 29°
2026-04-24 17:04 37.05944 -2.34680 40069 ft 499 kts 30°
2026-04-24 17:04 37.14927 -2.28035 40091 ft 499 kts 30°
2026-04-24 17:05 37.20863 -2.23633 40114 ft 498 kts 30°
2026-04-24 17:06 37.29815 -2.16980 40118 ft 497 kts 30°
2026-04-24 17:06 37.38731 -2.10336 40122 ft 496 kts 30°
2026-04-24 17:07 37.44665 -2.05903 40117 ft 495 kts 30°
2026-04-24 17:08 37.56457 -1.97070 40122 ft 494 kts 30°
2026-04-24 17:08 37.62362 -1.92634 40129 ft 494 kts 30°
2026-04-24 17:09 37.74139 -1.83763 40134 ft 494 kts 30°
2026-04-24 17:10 37.85931 -1.74847 40129 ft 493 kts 30°
2026-04-24 17:12 38.09443 -1.56967 40128 ft 493 kts 30°
2026-04-24 18:54 46.05943 6.06827 11078 ft 263 kts 46°
2026-04-24 18:55 46.08491 6.10587 10778 ft 261 kts 46°
2026-04-24 18:55 46.09759 6.12465 10620 ft 261 kts 46°
2026-04-24 18:55 46.11023 6.14341 10492 ft 261 kts 46°
2026-04-24 18:56 46.12288 6.16221 10355 ft 260 kts 46°
2026-04-24 18:56 46.13550 6.18101 10204 ft 260 kts 46°
2026-04-24 18:56 46.14804 6.19974 10074 ft 259 kts 45°
2026-04-24 18:56 46.16052 6.21845 9911 ft 259 kts 46°
2026-04-24 18:57 46.17295 6.23709 9798 ft 257 kts 46°
2026-04-24 18:57 46.18538 6.25574 9688 ft 257 kts 46°
2026-04-24 18:57 46.19761 6.27410 9568 ft 256 kts 46°
2026-04-24 18:57 46.20998 6.29267 9474 ft 256 kts 46°
2026-04-24 18:58 46.22230 6.31116 9374 ft 255 kts 46°
2026-04-24 18:58 46.23463 6.32967 9274 ft 254 kts 46°
2026-04-24 18:58 46.24662 6.34766 9097 ft 242 kts 46°
2026-04-24 18:58 46.25811 6.36491 8871 ft 235 kts 46°
2026-04-24 18:59 46.26938 6.38184 8668 ft 232 kts 46°
2026-04-24 18:59 46.28054 6.39862 8457 ft 231 kts 46°
2026-04-24 18:59 46.29167 6.41535 8249 ft 230 kts 46°
2026-04-24 18:59 46.30262 6.43180 8050 ft 229 kts 46°
2026-04-24 19:00 46.31008 6.44304 7933 ft 229 kts 46°
2026-04-24 19:00 46.32466 6.46501 7666 ft 228 kts 46°
2026-04-24 19:00 46.33560 6.48152 7453 ft 227 kts 46°
2026-04-24 19:00 46.34740 6.49649 7222 ft 226 kts 26°
2026-04-24 19:01 46.36259 6.49866 6996 ft 220 kts 343°
2026-04-24 19:01 46.37435 6.48558 6992 ft 219 kts 301°
2026-04-24 19:01 46.37706 6.46422 6998 ft 220 kts 263°
2026-04-24 19:01 46.37331 6.44265 7015 ft 221 kts 253°
2026-04-24 19:02 46.37034 6.42864 7017 ft 220 kts 253°
2026-04-24 19:02 46.36418 6.39997 6955 ft 228 kts 253°
2026-04-24 19:02 46.35969 6.37789 6670 ft 226 kts 258°
2026-04-24 19:02 46.36102 6.35543 6326 ft 226 kts 285°
2026-04-24 19:03 46.36570 6.33380 6026 ft 224 kts 289°
2026-04-24 19:03 46.37063 6.31244 5724 ft 223 kts 289°
2026-04-24 19:03 46.37238 6.29084 5562 ft 220 kts 257°
2026-04-24 19:03 46.36460 6.27108 5605 ft 231 kts 236°
2026-04-24 19:04 46.36016 6.24899 5591 ft 232 kts 274°
2026-04-24 19:04 46.36439 6.22675 5605 ft 233 kts 293°
2026-04-24 19:04 46.37506 6.20975 5592 ft 232 kts 333°
2026-04-24 19:04 46.39074 6.20683 5563 ft 232 kts 12°
2026-04-24 19:05 46.40407 6.21914 5653 ft 230 kts 47°
2026-04-24 19:05 46.41425 6.23714 6130 ft 241 kts 50°
2026-04-24 19:05 46.42543 6.25620 6029 ft 242 kts 49°
2026-04-24 19:05 46.43607 6.27414 5908 ft 230 kts 49°
2026-04-24 19:06 46.44634 6.29148 5702 ft 223 kts 50°
2026-04-24 19:06 46.45256 6.31141 5407 ft 220 kts 86°
2026-04-24 19:06 46.44784 6.33200 5206 ft 226 kts 131°
2026-04-24 19:06 46.43400 6.34270 5031 ft 236 kts 171°
2026-04-24 19:07 46.41764 6.33839 4831 ft 247 kts 204°
2026-04-24 19:07 46.40284 6.32617 4630 ft 240 kts 212°
2026-04-24 19:07 46.39350 6.31760 4513 ft 229 kts 213°
2026-04-24 19:07 46.37688 6.30218 4221 ft 205 kts 213°
2026-04-24 19:08 46.36498 6.29204 3988 ft 193 kts 209°
2026-04-24 19:08 46.35469 6.28022 3983 ft 190 kts 224°
2026-04-24 19:08 46.34522 6.26681 4002 ft 186 kts 225°
2026-04-24 19:08 46.33640 6.25392 3986 ft 177 kts 226°
2026-04-24 19:09 46.32781 6.24114 3922 ft 178 kts 226°
2026-04-24 19:09 46.31912 6.22828 3470 ft 180 kts 226°
2026-04-24 19:09 46.31077 6.21598 3290 ft 169 kts 226°
2026-04-24 19:09 46.30224 6.20348 2931 ft 177 kts 225°
2026-04-24 19:10 46.29382 6.19100 2757 ft 172 kts 226°
2026-04-24 19:10 46.28523 6.17829 2363 ft 174 kts 226°
2026-04-24 19:10 46.27973 6.17020 2256 ft 163 kts 226°
2026-04-24 19:10 46.27023 6.15623 1935 ft 156 kts 226°
2026-04-24 19:11 46.26284 6.14540 1723 ft 147 kts 225°
2026-04-24 19:11 46.25574 6.13487 1512 ft 140 kts 226°
2026-04-24 19:11 46.24925 6.12543 1419 ft 128 kts 224°
2026-04-24 19:11 46.24394 6.11779 1403 ft 83 kts 227°
2026-04-24 19:12 46.24173 6.11433 1408 ft 55 kts 226°
2026-04-24 19:12 46.23999 6.11186 1414 ft 22 kts 225°
2026-04-24 19:12 46.23878 6.11075 1406 ft 20 kts 189°
2026-04-24 19:12 46.23818 6.11077 1405 ft 0 kts 172°
2026-04-24 19:13 46.23813 6.11078 1406 ft 2 kts 172°
2026-04-24 19:13 46.23793 6.11082 1411 ft 0 kts 172°
2026-04-24 19:13 46.23790 6.11083 1411 ft 2 kts 172°
2026-04-24 19:13 46.23761 6.11088 1407 ft 6 kts 172°
2026-04-24 19:14 46.23714 6.11076 1404 ft 8 kts 205°
2026-04-24 19:14 46.23666 6.11018 1408 ft 11 kts 224°
2026-04-24 19:14 46.23648 6.10996 1406 ft 2 kts 210°
2026-04-24 19:14 46.23624 6.10998 1408 ft 4 kts 163°
2026-04-24 19:15 46.23601 6.11021 1410 ft 6 kts 143°
2026-04-24 19:15 46.23596 6.11027 1410 ft 0 kts 142°
2026-04-24 19:15 46.23595 6.11027 1410 ft 0 kts 142°
2026-04-24 19:15 46.23577 6.11048 1407 ft 6 kts 141°
2026-04-24 19:16 46.23559 6.11071 1404 ft 0 kts 136°